Burien, Washington, United States
Lat: 47.47N, Lon: 122.35W
Wx Zone: WAZ508
Local Info
Past Weather Observations for Today

NOTE: This archive is for the closest National Weather Service station to Burien. Information may differ from the station used for current weather conditions.

Click here for Long-term Archive

Time Weather Temperature Dewpoint Humidity Pressure Winds Precip Visibility
17:53
Partly Cloudy
52°F / 11°C 37°F / 3°C 58% 30.04 in
(1017 mb)
SW 5.8 mph
(SW 9 kph)
- 10SM
16:53
Partly Cloudy
54°F / 12°C 36°F / 2°C 51% 30.04 in
(1017 mb)
SSW 6.9 mph
(SSW 11 kph)
- 10SM
15:53
Partly Cloudy
54°F / 12°C 36°F / 2°C 51% 30.04 in
(1017 mb)
W 5.8 mph
(W 9 kph)
- 10SM
14:53
Mostly Cloudy
52°F / 11°C 37°F / 3°C 58% 30.04 in
(1017 mb)
NW 15 mph
(NW 24 kph)
- 10SM
13:53
Mostly Cloudy
55°F / 13°C 32°F / 0°C 41% 30.01 in
(1016 mb)
NW 6.9 mph
(NW 11 kph)
- 10SM
12:53
Mostly Cloudy
54°F / 12°C 34°F / 1°C 47% 30.01 in
(1016 mb)
SSW 5.8 mph
(SSW 9 kph)
- 10SM
11:53
Mostly Cloudy
54°F / 12°C 36°F / 2°C 51% 30.01 in
(1016 mb)
SW 8.1 mph
(SW 13 kph)
- 10SM
10:53
Mostly Cloudy
52°F / 11°C 37°F / 3°C 58% 30.01 in
(1016 mb)
SSE 4.6 mph
(SSE 7 kph)
- 10SM
09:53
Mostly Cloudy
50°F / 10°C 39°F / 4°C 67% 29.98 in
(1015 mb)
S 5.8 mph
(S 9 kph)
- 10SM
08:53
Mostly Cloudy
45°F / 7°C 39°F / 4°C 81% 29.98 in
(1015 mb)
SSE 6.9 mph
(SSE 11 kph)
- 10SM
07:53
Mostly Cloudy
46°F / 8°C 43°F / 6°C 87% 29.98 in
(1015 mb)
SSE 8.1 mph
(SSE 13 kph)
- 10SM
06:53
Mostly Cloudy
45°F / 7°C 39°F / 4°C 81% 29.98 in
(1015 mb)
SSE 6.9 mph
(SSE 11 kph)
- 10SM
05:53
Mostly Cloudy
43°F / 6°C N/A 87% 29.95 in
(1014 mb)
SE 4.6 mph
(SE 7 kph)
0.00 in
(0.00 mm)
10SM
04:53
Mostly Cloudy
Light Rain
43°F / 6°C 37°F / 3°C 81% 29.92 in
(1013 mb)
ENE 5.8 mph
(ENE 9 kph)
0.00 in
(0.00 mm)
10SM
03:53
Mostly Cloudy
43°F / 6°C 39°F / 4°C 87% 29.92 in
(1013 mb)
E 9.2 mph
(E 15 kph)
0.02 in
(0.51 mm)
10SM
03:42
Mostly Cloudy
43°F / 6°C 39°F / 4°C 87% 29.92 in
(1013 mb)
NE 5.8 mph
(NE 9 kph)
0.02 in
(0.51 mm)
10SM
03:11
Mostly Cloudy
Light Rain
43°F / 6°C 39°F / 4°C 87% 29.92 in
(1013 mb)
NE 11.5 mph
(NE 19 kph)
0.02 in
(0.51 mm)
6SM
02:53
Overcast
Heavy Rain
45°F / 7°C 39°F / 4°C 81% 29.92 in
(1013 mb)
NNW 10.4 mph
(NNW 17 kph)
0.03 in
(0.76 mm)
5SM
02:45
Overcast
Light Rain
45°F / 7°C 39°F / 4°C 81% 29.92 in
(1013 mb)
NW 5.8 mph
(NW 9 kph)
0.00 in
(0.00 mm)
5SM
02:00
Overcast
45°F / 7°C 39°F / 4°C 81% 29.92 in
(1013 mb)
SSE 3.5 mph
(SSE 6 kph)
- 10SM
01:53
Mostly Cloudy
45°F / 7°C 41°F / 5°C 87% 29.92 in
(1013 mb)
SSE 4.6 mph
(SSE 7 kph)
- 10SM
00:53
Mostly Cloudy
45°F / 7°C 41°F / 5°C 87% 29.92 in
(1013 mb)
S 3.5 mph
(S 6 kph)
- 10SM
Time Weather Temperature Dewpoint Humidity Pressure Winds Precip Visibility


Weather for websites

WeatherForYou.com, LLC is not responsible for any damages or problems caused by this service. Current weather conditions are obtained from the closest station including government and personal stations which may have varying degrees of accuracy. Weather forecasts are derived from the NOAA NDFD. Like all things, this site belongs to Jesus Christ... He just trusts us to maintain it. If you have any questions or comments email webmaster@weatherforyou.com

Copyright © 2015, WeatherForYou.com LLC. All rights reserved.